DW4937 Weather Reports


Display with metric or nautical units.
time (UTC)temp
F
wind
direction
speed
MPH
gust
MPH
rain 1hr
in
rain 24hr
in
rain mn
in
humidity
%
barometer
mb
20180124054544 31 324 13.0 19.0 0.00 0.00 0.00 82 1015.1
20180124054044 31 308 13.0 20.0 0.00 0.00 0.00 82 1015.0
20180124053544 31 323 14.0 20.0 0.00 0.00 0.00 82 1015.0
20180124053043 31 308 14.0 20.0 0.00 0.00 0.00 82 1014.9
20180124052544 31 294 12.0 20.0 0.00 0.00 0.00 81 1014.9
20180124052043 31 300 12.0 18.0 0.00 0.00 0.00 80 1014.9
20180124051545 31 307 12.0 18.0 0.00 0.00 0.00 79 1014.9
20180124051044 31 304 10.0 16.0 0.00 0.00 0.00 78 1014.8
20180124050543 31 267 8.0 16.0 0.00 0.00 0.00 78 1014.7
20180124050043 31 271 7.0 16.0 0.00 0.00 0.00 78 1014.7
20180124045542 31 315 9.0 16.0 0.00 0.00 0.16 78 1014.6
20180124045043 31 280 9.0 19.0 0.00 0.00 0.16 79 1014.6
20180124044542 32 254 11.0 19.0 0.00 0.00 0.16 79 1014.6
20180124044042 32 262 11.0 19.0 0.00 0.00 0.16 79 1014.5
20180124043543 32 257 10.0 17.0 0.00 0.00 0.16 79 1014.4
20180124043042 32 260 9.0 17.0 0.00 0.00 0.16 80 1014.3
20180124042542 32 246 9.0 17.0 0.00 0.00 0.16 80 1014.3
20180124042044 32 270 9.0 17.0 0.00 0.00 0.16 80 1014.2
20180124041542 32 271 9.0 15.0 0.00 0.00 0.16 80 1014.1
20180124041042 32 0.0 0.0 0.00 0.00 0.16 80
20180124035155 32 313 9.0 20.0 0.00 0.23 0.16 81 1013.8
20180124034654 32 296 11.0 21.0 0.00 0.23 0.16 81 1013.7
20180124034154 32 293 13.0 21.0 0.00 0.23 0.16 81 1013.6
20180124033655 32 259 13.0 22.0 0.00 0.23 0.16 81 1013.5
20180124033154 32 276 14.0 22.0 0.00 0.23 0.16 81 1013.5
20180124032655 32 286 14.0 22.0 0.00 0.23 0.16 81 1013.5
20180124032152 32 254 13.0 22.0 0.00 0.23 0.16 81 1013.5
20180124031653 33 249 12.0 20.0 0.00 0.23 0.16 81 1013.5
20180124031152 33 275 11.0 20.0 0.00 0.23 0.16 81 1013.4
20180124030652 33 261 9.0 20.0 0.00 0.23 0.16 82 1013.3
20180124030153 33 254 9.0 15.0 0.00 0.23 0.16 82 1013.2
20180124025652 33 273 9.0 15.0 0.00 0.23 0.16 82 1013.0
20180124025151 33 238 9.0 17.0 0.00 0.23 0.16 82 1013.0
20180124024653 33 268 9.0 17.0 0.00 0.23 0.16 82 1013.0
20180124024152 33 323 10.0 17.0 0.00 0.23 0.16 82 1012.9
20180124023652 33 304 11.0 23.0 0.00 0.23 0.16 82 1012.8
20180124023152 33 245 12.0 23.0 0.00 0.23 0.16 82 1012.8
20180124022653 33 273 12.0 21.0 0.00 0.23 0.16 82 1012.6
20180124022156 33 266 13.0 24.0 0.00 0.23 0.16 82 1012.5
20180124021653 33 318 14.0 24.0 0.00 0.23 0.16 82 1012.5
20180124021152 33 270 13.0 26.0 0.00 0.23 0.16 82 1012.3
20180124020652 33 298 13.0 26.0 0.00 0.23 0.16 82 1012.2
20180124020153 33 257 14.0 26.0 0.00 0.23 0.16 82 1012.2
20180124015652 33 259 15.0 26.0 0.00 0.23 0.16 82 1012.1
20180124015153 33 259 16.0 26.0 0.00 0.23 0.16 82 1012.1
20180124014652 34 247 17.0 26.0 0.00 0.23 0.16 82 1012.0
20180124014152 34 269 17.0 26.0 0.00 0.23 0.16 82 1011.9
20180124013654 34 254 16.0 23.0 0.00 0.23 0.16 82 1011.8
20180124013152 34 266 16.0 27.0 0.00 0.23 0.16 82 1011.7
20180124012652 34 264 17.0 27.0 0.00 0.23 0.16 82 1011.7
20180124012153 34 257 17.0 27.0 0.00 0.23 0.16 82 1011.6
20180124011653 34 259 17.0 27.0 0.00 0.23 0.16 82 1011.5
20180124011154 34 253 17.0 27.0 0.00 0.23 0.16 82 1011.4
20180124010652 34 273 18.0 27.0 0.00 0.23 0.16 82 1011.4
20180124010153 34 246 18.0 27.0 0.00 0.23 0.16 82 1011.3
20180124005653 34 257 18.0 27.0 0.00 0.23 0.16 82 1011.2
20180124005151 34 257 17.0 28.0 0.00 0.23 0.16 82 1011.1
20180124004652 34 275 17.0 28.0 0.00 0.23 0.16 82 1011.1
20180124004153 34 277 16.0 28.0 0.00 0.23 0.16 82 1011.1
20180124003650 34 256 15.0 28.0 0.00 0.23 0.16 82 1011.0
20180124003150 34 257 17.0 28.0 0.00 0.23 0.16 82 1011.0
20180124002651 34 252 18.0 28.0 0.00 0.23 0.16 82 1010.9
20180124002150 34 256 19.0 28.0 0.00 0.23 0.16 82 1010.7
20180124001650 34 258 18.0 28.0 0.00 0.23 0.16 82 1010.6
20180124001152 34 263 17.0 28.0 0.00 0.23 0.16 82 1010.5
20180124000650 34 252 15.0 28.0 0.00 0.23 0.16 81 1010.4
20180124000150 34 300 15.0 28.0 0.00 0.23 0.16 81 1010.3
20180123235651 34 260 15.0 28.0 0.00 0.23 0.16 81 1010.1
20180123235150 34 262 15.0 24.0 0.00 0.23 0.16 81 1010.1
20180123234649 34 255 14.0 24.0 0.00 0.23 0.16 81 1010.0
20180123234149 34 266 14.0 24.0 0.00 0.23 0.16 80 1009.9
20180123233650 34 269 14.0 20.0 0.00 0.23 0.16 80 1009.7
20180123233150 34 244 13.0 20.0 0.00 0.23 0.16 80 1009.7
20180123232650 34 246 13.0 23.0 0.00 0.23 0.16 80 1009.5
20180123232151 34 244 12.0 23.0 0.00 0.23 0.16 80 1009.5
20180123231650 34 250 12.0 23.0 0.00 0.23 0.16 80 1009.4
20180123231151 34 231 13.0 23.0 0.00 0.23 0.16 80 1009.3
20180123230650 34 242 14.0 20.0 0.00 0.23 0.16 80 1009.1
20180123230150 34 244 14.0 20.0 0.00 0.23 0.16 81 1009.0
20180123225651 34 244 14.0 23.0 0.00 0.23 0.16 81 1008.8
20180123225150 35 245 13.0 23.0 0.00 0.23 0.16 82 1008.7
20180123224650 35 255 14.0 23.0 0.00 0.23 0.16 82 1008.5
20180123224151 35 244 15.0 24.0 0.00 0.23 0.16 82 1008.4
20180123223650 35 250 15.0 24.0 0.00 0.23 0.16 82 1008.3
20180123223157 35 240 16.0 27.0 0.00 0.23 0.16 83 1008.2
20180123222651 35 249 16.0 27.0 0.00 0.23 0.16 82 1008.1
20180123222149 35 258 17.0 27.0 0.00 0.23 0.16 82 1007.8
20180123221651 35 268 17.0 27.0 0.00 0.23 0.16 82 1007.7
20180123221150 35 262 16.0 24.0 0.00 0.23 0.16 82 1007.6
20180123220650 35 247 15.0 29.0 0.00 0.23 0.16 82 1007.5
20180123220150 35 250 15.0 29.0 0.00 0.23 0.16 82 1007.5
20180123215649 36 275 16.0 29.0 0.00 0.23 0.16 82 1007.3
20180123215150 36 264 17.0 29.0 0.00 0.23 0.16 82 1007.3
20180123214651 36 247 17.0 27.0 0.00 0.23 0.16 82 1007.1
20180123214150 36 249 17.0 27.0 0.00 0.23 0.16 82 1007.1
20180123213651 36 261 17.0 27.0 0.00 0.23 0.16 82 1006.8
20180123213151 36 260 16.0 27.0 0.00 0.23 0.16 82 1006.7
20180123212650 36 254 15.0 22.0 0.00 0.23 0.16 82 1006.6
20180123212149 36 248 14.0 22.0 0.00 0.23 0.16 82 1006.4
20180123211649 36 265 14.0 22.0 0.00 0.23 0.16 82 1006.3
20180123211150 36 242 14.0 22.0 0.00 0.23 0.16 82 1006.1
20180123210651 36 254 14.0 22.0 0.00 0.23 0.16 82 1005.9
20180123210151 36 247 12.0 20.0 0.00 0.23 0.16 82 1005.8
20180123205651 37 248 10.0 18.0 0.00 0.23 0.16 82 1005.7
20180123205150 37 248 10.0 20.0 0.00 0.23 0.16 82 1005.6
20180123204650 37 241 9.0 20.0 0.00 0.23 0.16 82 1005.5
20180123204151 37 237 10.0 20.0 0.00 0.23 0.16 82 1005.4
20180123203650 37 254 11.0 20.0 0.00 0.23 0.16 82 1005.2
20180123203151 37 238 11.0 19.0 0.00 0.23 0.16 82 1005.0
20180123202649 38 252 11.0 19.0 0.00 0.23 0.16 82 1004.9
20180123202150 38 236 10.0 18.0 0.00 0.23 0.16 82 1004.7
20180123201651 39 250 7.0 18.0 0.00 0.23 0.16 81 1004.5
20180123201148 39 219 6.0 15.0 0.00 0.23 0.16 81 1004.2
20180123200648 39 227 5.0 20.0 0.00 0.23 0.16 81 1004.1
20180123200148 39 229 5.0 20.0 0.00 0.23 0.16 81 1004.0
20180123195647 39 252 7.0 20.0 0.00 0.23 0.16 81 1004.0
20180123195149 39 223 7.0 20.0 0.00 0.23 0.16 81 1004.0
20180123194648 39 240 7.0 20.0 0.00 0.23 0.16 81 1004.0
20180123194147 38 227 7.0 15.0 0.00 0.23 0.16 82 1003.9
20180123193649 39 221 7.0 15.0 0.00 0.23 0.16 82 1003.9
20180123193146 39 220 6.0 12.0 0.00 0.23 0.16 82 1003.9
20180123192647 39 229 7.0 14.0 0.00 0.23 0.16 82 1003.8
20180123192146 38 226 7.0 14.0 0.00 0.23 0.16 82 1003.7
20180123191647 38 238 6.0 18.0 0.00 0.23 0.16 82 1003.7
20180123191145 38 221 6.0 18.0 0.00 0.23 0.16 82 1003.6
20180123190647 39 210 7.0 18.0 0.00 0.23 0.16 82 1003.5
20180123190144 39 223 8.0 18.0 0.00 0.23 0.16 82 1003.5
20180123185644 39 242 7.0 16.0 0.00 0.23 0.16 82 1003.4
20180123185144 39 225 6.0 15.0 0.00 0.23 0.16 81 1003.4
20180123184643 40 193 7.0 15.0 0.00 0.23 0.16 81 1003.3
20180123184145 40 199 7.0 15.0 0.00 0.23 0.16 80 1003.0
20180123183643 40 194 5.0 15.0 0.00 0.23 0.16 80 1003.0
20180123183144 40 220 5.0 12.0 0.00 0.23 0.16 80 1003.1
20180123182643 40 196 3.0 9.0 0.00 0.23 0.16 79 1003.0
20180123182145 40 212 3.0 9.0 0.00 0.23 0.16 79 1003.0
20180123181645 41 194 5.0 16.0 0.00 0.23 0.16 79 1002.9
20180123181144 41 226 6.0 12.0 0.00 0.23 0.16 78 1002.9
20180123180643 41 201 7.0 16.0 0.00 0.23 0.16 78 1002.9
20180123180144 41 241 6.0 16.0 0.00 0.23 0.16 78 1002.9
20180123175644 41 216 7.0 19.0 0.00 0.23 0.16 79 1002.8
20180123175146 41 224 7.0 19.0 0.00 0.23 0.16 79 1002.8
20180123174645 41 234 5.0 14.0 0.00 0.23 0.16 79 1002.7
20180123174142 41 198 4.0 14.0 0.00 0.23 0.16 79 1002.7
20180123173643 42 195 3.0 16.0 0.00 0.23 0.16 79 1002.7
20180123173139 41 244 3.0 16.0 0.00 0.23 0.16 80 1002.8
20180123172639 41 225 2.0 16.0 0.00 0.23 0.16 81 1002.7
20180123172141 40 222 2.0 16.0 0.00 0.23 0.16 81 1002.7
20180123171639 40 225 3.0 14.0 0.00 0.23 0.16 82 1002.7
20180123171140 40 237 4.0 14.0 0.00 0.23 0.16 82 1002.8
20180123170641 40 236 3.0 14.0 0.00 0.23 0.16 82 1002.7
20180123170137 40 234 2.0 14.0 0.01 0.23 0.16 82 1002.7
20180123165639 40 229 1.0 10.0 0.01 0.23 0.16 82 1002.8
20180123165138 40 211 1.0 10.0 0.01 0.23 0.16 82 1002.7
20180123164638 40 228 1.0 10.0 0.01 0.23 0.16 82 1002.7
20180123164138 40 226 1.0 10.0 0.01 0.23 0.16 82 1002.7
20180123163637 40 217 1.0 13.0 0.01 0.23 0.16 82 1002.8
20180123163137 40 215 2.0 13.0 0.01 0.23 0.16 82 1002.7
20180123162636 40 235 4.0 13.0 0.01 0.23 0.16 82 1002.7
20180123162136 40 221 4.0 13.0 0.01 0.23 0.16 81 1002.6
20180123161634 40 213 4.0 13.0 0.01 0.23 0.16 81 1002.7
20180123161133 40 211 3.0 16.0 0.01 0.23 0.16 81 1002.7
20180123160634 40 235 2.0 16.0 0.01 0.23 0.16 81 1002.6
20180123160134 40 233 2.0 16.0 0.00 0.22 0.15 81 1002.7
20180123155634 39 222 4.0 16.0 0.00 0.22 0.15 81 1002.8
20180123155136 39 232 6.0 16.0 0.00 0.22 0.15 81 1002.8
20180123154635 39 242 6.0 16.0 0.00 0.22 0.15 81 1002.7
20180123154134 39 233 5.0 16.0 0.00 0.22 0.15 81 1002.7
20180123153635 39 205 3.0 15.0 0.00 0.22 0.15 81 1002.7
20180123153135 39 207 2.0 13.0 0.00 0.22 0.15 81 1002.7
20180123152635 39 187 2.0 13.0 0.00 0.22 0.15 81 1002.5
20180123152134 39 225 1.0 8.0 0.00 0.22 0.15 81 1002.4
20180123151635 39 196 1.0 8.0 0.00 0.22 0.15 80 1002.5
20180123151135 40 202 0.0 6.0 0.00 0.22 0.15 80 1002.3
20180123150635 40 196 0.0 8.0 0.00 0.22 0.15 80 1002.3
20180123150135 40 203 1.0 8.0 0.00 0.22 0.15 80 1002.2
20180123145633 39 216 1.0 7.0 0.00 0.22 0.15 80 1002.2
20180123145132 39 187 0.0 0.0 0.00 0.22 0.15 81 1002.1
20180123144631 39 194 0.0 0.0 0.00 0.22 0.15 80 1002.1
20180123144130 39 187 0.0 0.0 0.00 0.22 0.15 80 1002.1
20180123143631 39 199 0.0 0.0 0.00 0.22 0.15 80 1002.1
20180123143130 39 186 0.0 0.0 0.00 0.22 0.15 80 1002.0
20180123142629 39 227 0.0 0.0 0.00 0.22 0.15 80 1002.0
20180123142131 39 202 0.0 0.0 0.00 0.22 0.15 80 1001.9
20180123141628 39 202 0.0 0.0 0.00 0.22 0.15 80 1001.8
20180123141129 39 207 0.0 0.0 0.00 0.22 0.15 80 1001.8
20180123140627 39 207 0.0 0.0 0.00 0.22 0.15 81 1001.8
20180123140129 39 223 0.0 0.0 0.00 0.22 0.15 81 1001.7
20180123135626 39 204 0.0 8.0 0.00 0.22 0.15 81 1001.7
20180123135126 39 203 0.0 8.0 0.00 0.22 0.15 81 1001.7
20180123134627 39 199 1.0 8.0 0.00 0.22 0.15 81 1001.6
20180123134127 39 217 0.0 8.0 0.00 0.22 0.15 81 1001.7
20180123133627 39 202 0.0 0.0 0.00 0.22 0.15 81 1001.5
20180123133125 39 198 0.0 0.0 0.00 0.22 0.15 81 1001.4
20180123132626 39 198 0.0 0.0 0.00 0.22 0.15 81 1001.4
20180123132126 39 189 0.0 0.0 0.00 0.22 0.15 81 1001.4
20180123131625 39 192 0.0 0.0 0.00 0.22 0.15 81 1001.3
20180123131127 39 200 0.0 0.0 0.00 0.22 0.15 81 1001.3
20180123130626 39 213 0.0 10.0 0.00 0.22 0.15 81 1001.2
20180123130127 39 215 0.0 10.0 0.00 0.22 0.15 82 1001.2
20180123125625 39 216 1.0 16.0 0.00 0.22 0.15 82 1001.3
20180123125125 39 212 3.0 16.0 0.00 0.22 0.15 82 1001.3
20180123124625 39 223 6.0 16.0 0.00 0.22 0.15 82 1001.4
20180123124127 40 225 7.0 16.0 0.00 0.22 0.15 82 1001.4
20180123123625 40 229 8.0 15.0 0.00 0.22 0.15 82 1001.4
20180123123125 40 229 7.0 15.0 0.00 0.22 0.15 82 1001.3
20180123122625 40 232 7.0 15.0 0.00 0.22 0.15 81 1001.3
20180123122125 40 234 7.0 13.0 0.00 0.22 0.15 81 1001.1
20180123121625 41 236 5.0 14.0 0.00 0.22 0.15 81 1001.2
20180123121126 41 221 2.0 14.0 0.00 0.22 0.15 81 1001.0
20180123120627 41 225 0.0 0.0 0.00 0.22 0.15 82 1000.9
20180123120125 41 226 0.0 0.0 0.00 0.22 0.15 82 1000.8
20180123115625 41 215 0.0 0.0 0.00 0.22 0.15 82 1000.8
20180123115127 41 227 0.0 0.0 0.00 0.22 0.15 81 1000.5
20180123114626 41 186 0.0 0.0 0.00 0.22 0.15 81 1000.1
20180123114127 41 188 0.0 0.0 0.00 0.22 0.15 81 1000.0
20180123113626 41 201 0.0 0.0 0.00 0.22 0.15 81 999.9
20180123113127 41 201 0.0 0.0 0.00 0.22 0.15 81 999.8
20180123112626 41 201 0.0 0.0 0.00 0.22 0.15 81 999.8
20180123112127 41 201 0.0 0.0 0.00 0.22 0.15 81 999.7
20180123111626 42 202 0.0 0.0 0.00 0.22 0.15 81 999.6
20180123111127 42 202 0.0 0.0 0.00 0.22 0.15 81 999.6
20180123110626 42 202 0.0 0.0 0.00 0.22 0.15 81 999.8
20180123110125 42 202 0.0 0.0 0.00 0.22 0.15 81 1000.0
20180123105626 42 206 0.0 0.0 0.00 0.22 0.15 81 1000.1
20180123105127 42 206 0.0 0.0 0.00 0.22 0.15 82 1000.1
20180123104626 43 206 0.0 0.0 0.00 0.22 0.15 82 1000.1
20180123104127 43 206 0.0 0.0 0.00 0.22 0.15 81 1000.1
20180123103626 43 206 0.0 0.0 0.00 0.22 0.15 81 1000.1
20180123103127 43 207 0.0 0.0 0.00 0.22 0.15 81 1000.2
20180123102625 43 207 0.0 0.0 0.00 0.22 0.15 81 1000.4
20180123102125 43 207 0.0 0.0 0.00 0.22 0.15 81 1000.4
20180123101627 43 207 0.0 0.0 0.00 0.22 0.15 82 1000.3
20180123101126 43 207 0.0 0.0 0.00 0.22 0.15 82 1000.2
20180123100626 44 207 0.0 0.0 0.00 0.22 0.15 81 1000.2
20180123100125 44 208 0.0 0.0 0.00 0.22 0.15 81 1000.2
20180123095626 44 208 0.0 0.0 0.00 0.22 0.15 81 1000.2
20180123095127 44 208 0.0 0.0 0.00 0.22 0.15 81 1000.4
20180123094626 44 207 0.0 0.0 0.00 0.22 0.15 81 1000.7
20180123094127 44 207 0.0 0.0 0.00 0.22 0.15 81 1000.6
20180123093626 44 207 0.0 0.0 0.00 0.22 0.15 81 1000.6
20180123093127 44 207 0.0 0.0 0.00 0.22 0.15 81 1000.6
20180123092627 45 207 0.0 0.0 0.00 0.22 0.15 81 1000.7
20180123092127 45 207 0.0 0.0 0.00 0.22 0.15 81 1000.6
20180123091627 45 209 0.0 0.0 0.00 0.22 0.15 81 1000.5
20180123091125 45 211 0.0 0.0 0.00 0.22 0.15 81 1000.4
20180123090627 46 231 0.0 0.0 0.00 0.22 0.15 80 1000.4
20180123090124 46 206 0.0 0.0 0.00 0.22 0.15 80 1000.5
20180123085625 46 213 0.0 0.0 0.00 0.22 0.15 80 1000.4
20180123085124 46 208 0.0 0.0 0.00 0.22 0.15 80 1000.4
20180123084623 46 207 0.0 0.0 0.00 0.22 0.15 80 1000.6
20180123084123 46 205 0.0 0.0 0.00 0.22 0.15 80 1000.6
20180123083624 46 212 0.0 0.0 0.00 0.22 0.15 80 1000.5
20180123083123 46 213 0.0 0.0 0.00 0.22 0.15 80 1000.4
20180123082624 46 215 0.0 0.0 0.00 0.22 0.15 80 1000.2
20180123082123 47 179 0.0 0.0 0.00 0.22 0.15 80 1000.2
20180123081625 47 179 0.0 0.0 0.00 0.22 0.15 80 1000.4
20180123081123 47 187 0.0 0.0 0.00 0.22 0.15 80 1000.2
20180123080625 47 186 0.0 0.0 0.00 0.22 0.15 80 1000.1
20180123080123 47 185 0.0 0.0 0.00 0.22 0.15 80 1000.0
20180123075623 47 184 0.0 0.0 0.00 0.22 0.15 79 999.9
20180123075124 47 183 0.0 0.0 0.00 0.22 0.15 79 999.9
20180123074623 47 195 0.0 0.0 0.00 0.22 0.15 79 999.9
20180123074124 47 196 0.0 0.0 0.00 0.22 0.15 79 999.8
20180123073623 47 184 0.0 0.0 0.00 0.22 0.15 79 999.8
20180123073125 47 184 0.0 0.0 0.00 0.22 0.15 78 999.7
20180123072624 47 189 0.0 0.0 0.00 0.22 0.15 78 999.7
20180123072124 47 185 0.0 0.0 0.00 0.22 0.15 77 999.7
20180123071623 47 192 0.0 0.0 0.00 0.22 0.15 76 999.7
20180123071124 47 187 0.0 0.0 0.00 0.22 0.15 75 999.7
20180123070624 47 182 0.0 0.0 0.00 0.22 0.15 75 999.9
20180123070125 47 186 0.0 0.0 0.00 0.22 0.15 75 999.9
20180123065623 47 145 0.0 0.0 0.01 0.22 0.15 75 999.9
20180123065124 47 182 0.0 0.0 0.01 0.22 0.15 75 999.9
20180123064624 47 186 0.0 0.0 0.01 0.22 0.15 75 999.9
20180123064125 47 185 0.0 0.0 0.04 0.22 0.15 75 999.7
20180123063625 47 194 0.0 0.0 0.06 0.22 0.15 75 999.8
20180123063123 47 195 0.0 0.0 0.08 0.22 0.15 75 999.8
20180123062625 47 201 0.0 0.0 0.10 0.22 0.15 75 999.9
20180123062124 47 155 0.0 0.0 0.12 0.22 0.15 75 999.4
20180123061623 47 173 0.0 0.0 0.13 0.22 0.15 76 999.3
20180123061124 47 194 0.0 0.0 0.14 0.22 0.15 75 999.4
20180123060623 47 172 0.0 0.0 0.15 0.22 0.15 75 999.3
20180123060124 47 176 0.0 6.0 0.15 0.22 0.15 75 999.7
20180123055623 47 188 0.0 6.0 0.14 0.21 0.14 75 999.9
20180123055123 47 180 0.0 6.0 0.15 0.21 0.14 75 999.9
20180123054623 47 153 0.0 6.0 0.17 0.21 0.14 75 999.8